Location: Unspecified
(52.4292°N, 19.3359°E)
Time: 16:06:07
(UTC+02:00)

Transit 4A - Pass Details

Date: 28 May 2024
Orbit: 871 x 972 km, 66.8° (Epoch: 22 June)

Event Time Altitude Azimuth Distance (km) Brightness Sun altitude
Rises 03:24:17 0° 159° (SSE) 3,483 10.6 -7.9°
Reaches altitude 10° 03:27:51 10° 137° (SE) 2,535 10.1 -7.5°
Maximum altitude 03:31:03 15° 104° (ESE) 2,178 10.2 -7.2°
Drops below altitude 10° 03:34:14 10° 70° (ENE) 2,528 11.3 -6.9°
Sets 03:37:46 0° 49° (NE) 3,469 13.3 -6.6°
